Weather History for KHJO - May, 2012

Change the Weather History Date:

Friday, May 18, 2012

  Actual Average Record
Temperature  
Mean Temperature 69 °F 69 °F  
Max Temperature 84 °F 85 °F 102 °F (2008)
Min Temperature 53 °F 54 °F 47 °F (1998)
Degree Days  
Heating Degree Days 0    
Month to date heating degree days 1  
Since 1 July heating degree days 2647  
Cooling Degree Days 4    
Month to date cooling degree days 94  
Year to date cooling degree days 156  
Growing Degree Days 18 (Base 50)    
Moisture  
Dew Point 43 °F    
Average Humidity 47    
Maximum Humidity 71    
Minimum Humidity 22    
Precipitation  
Precipitation 0.00 in 0.01 in 0.25 in (1957)
Month to date precipitation 0.00 0.29  
Year to date precipitation 4.55 6.48  
Since 1 July precipitation 5.79 9.82  
Snow  
Snow 0.00 in - - ()
Month to date snowfall 0.0  
Since 1 July snowfall 0.0  
Snow Depth 0.00 in    
Sea Level Pressure  
Sea Level Pressure 29.89 in    
Wind  
Wind Speed 6 mph (NNW)    
Max Wind Speed 0 mph    
Max Gust Speed 0 mph    
Visibility 10 miles    
Events      
T = Trace of Precipitation, MM = Missing Value Source: NWS Daily Summary

Daily Weather History Graph

Daily Weather History Graph

Search for Another Location

Airport or City:

Trip Planner

Search our weather history database for the weather conditions in past years. The results will help you decide how hot, cold, wet, or windy it might be!

Date:

Astronomy

May. 18, 2012 Rise Set
Actual Time 5:49 AM PDT 8:01 PM PDT
Civil Twilight 5:20 AM PDT 8:30 PM PDT
Nautical Twilight 4:44 AM PDT 9:05 PM PDT
Astronomical Twilight 4:06 AM PDT 9:44 PM PDT
Moon 4:18 AM PDT (5/18) 6:16 PM PDT (5/18)
Length of Visible Light 15h 09m
Length of Day
14h 11m
Waning Crescent, 4% of the Moon is Illuminated
May 18
Waning Crescent
May 20
New
May 28
First Quarter
Jun 4
Full
Jun 11
Last Quarter

Hourly Weather History & Observations

Time (PDT) Temp. Dew Point Humidity Pressure Visibility Wind Dir Wind Speed Gust Speed Precip Events Conditions
12:53 AM 62.1 °F 43.0 °F 50% 29.85 in 10.0 mi NW 10.4 mph - N/A   Clear
1:53 AM 59.0 °F 43.0 °F 55% 29.86 in 10.0 mi NNW 5.8 mph - N/A   Clear
2:53 AM 55.9 °F 43.0 °F 62% 29.87 in 10.0 mi North 3.5 mph - N/A   Clear
3:53 AM 55.9 °F 43.0 °F 62% 29.87 in 10.0 mi NNW 4.6 mph - N/A   Clear
4:53 AM 55.0 °F 43.0 °F 64% 29.87 in 10.0 mi North 3.5 mph - N/A   Clear
5:53 AM 54.0 °F 44.1 °F 69% 29.88 in 9.0 mi Calm Calm - N/A   Clear
6:53 AM 55.9 °F 44.1 °F 64% 29.91 in 9.0 mi NW 3.5 mph - N/A   Clear
7:53 AM 59.0 °F 45.0 °F 60% 29.93 in 9.0 mi WNW 3.5 mph - N/A   Clear
8:53 AM 62.1 °F 46.0 °F 56% 29.94 in 8.0 mi Variable 3.5 mph - N/A   Clear
9:53 AM 68.0 °F 46.0 °F 45% 29.93 in 9.0 mi NNW 9.2 mph 17.3 mph N/A   Clear
10:53 AM 71.1 °F 46.0 °F 41% 29.94 in 10.0 mi NNW 5.8 mph 16.1 mph N/A   Clear
11:53 AM 72.0 °F 46.9 °F 41% 29.94 in 10.0 mi Calm Calm - N/A   Clear
12:53 PM 75.0 °F 48.0 °F 38% 29.92 in 9.0 mi WNW 4.6 mph - N/A   Clear
1:53 PM 80.1 °F 48.9 °F 34% 29.91 in 10.0 mi NW 8.1 mph - N/A   Clear
2:53 PM 81.0 °F 46.9 °F 30% 29.89 in 10.0 mi North 10.4 mph 18.4 mph N/A   Clear
3:53 PM 82.9 °F 44.1 °F 25% 29.88 in 10.0 mi NNW 11.5 mph 18.4 mph N/A   Partly Cloudy
4:53 PM 82.9 °F 39.9 °F 22% 29.87 in 10.0 mi NNW 6.9 mph 21.9 mph N/A   Clear
5:53 PM 82.9 °F 42.1 °F 24% 29.86 in 10.0 mi NNW 10.4 mph - N/A   Clear
6:53 PM 81.0 °F 39.0 °F 22% 29.86 in 10.0 mi NW 11.5 mph - N/A   Clear
7:53 PM 78.1 °F 37.9 °F 24% 29.86 in 10.0 mi NNW 8.1 mph - N/A   Clear
8:53 PM 73.0 °F 39.9 °F 30% 29.88 in 10.0 mi NNW 4.6 mph - N/A   Clear
9:53 PM 72.0 °F 41.0 °F 33% 29.88 in 10.0 mi North 5.8 mph - N/A   Clear
10:53 PM 70.0 °F 39.0 °F 32% 29.90 in 10.0 mi NW 4.6 mph - N/A   Clear
11:53 PM 66.0 °F 43.0 °F 43% 29.90 in 10.0 mi NW 4.6 mph - N/A   Clear